Flag for Brazil Weather past 2 weeks in Campo Grande, Mato Grosso Do Sul, Brazil

Now
90 °F

Passing clouds.


Feels Like: 90 °F
Forecast: 68 / 89 °F
Wind: 13 mph from Northwest

Location: Campo Grande Aeroporto

Current Time: Sep 23, 2014 at 2:56:54 PM

Latest Report: Sep 23, 2014 at 2:00 PM


Visibility: N/A

Pressure: 29.89 "Hg

Humidity: 41%

Dew point: 63 °F

Location of Campo GrandeLocation

Historic Weather in Campo Grande — Graph

°F

Campo Grande temperature yesterday

Maximum temperature yesterday: 86 °F (at 3:00 PM)
Minimum temperature yesterday: 59 °F (at 5:00 AM)
Average temperature yesterday: 72 °F

Past Weeks' High & Low Weather Summary

 TemperatureHumidityPressure
High95 °F (Sep 14, 11:00 AM)100% (Sep 20, 4:10 AM)30.12 "Hg (Sep 20, 4:10 AM)
Low57 °F (Sep 16, 6:00 AM)21% (Sep 13, 2:00 PM)29.80 "Hg (Sep 18, 4:00 PM)
Average77 °F54%29.96 "Hg
* Reported Sep 8 2:00 PM — Sep 23 2:00 PM, Campo Grande, Weather by CustomWeather, © 2014

Note: Actual official high and low records may vary slightly from our data, if they occured in-between our weather recording intervals... More about our weather records

Advertising

Campo Grande weather history for previous 24 hours

 ConditionsComfort  
Time TempWeatherWind HumidityBarometerVisibility
2:00 PM
Sep 23
90 °FPassing clouds.13 mph41%29.89 "HgN/A
1:00 PM90 °FPassing clouds.13 mph41%29.92 "HgN/A
12:00 PM90 °FSunny.10 mph38%29.95 "Hg10 mi
11:00 AM88 °FSunny.14 mph43%29.98 "Hg10 mi
10:00 AM86 °FSunny.10 mph43%29.98 "Hg10 mi
9:00 AM81 °FSunny.14 mph48%29.98 "Hg10 mi
8:00 AM75 °FSunny.17 mph54%29.98 "Hg10 mi
7:00 AM72 °FSunny.17 mph57%29.95 "Hg10 mi
6:00 AM68 °FSunny.17 mph60%29.92 "Hg10 mi
5:00 AM68 °FSunny.16 mph60%29.92 "Hg10 mi
4:00 AM70 °FClear.16 mph60%29.89 "Hg10 mi
3:00 AM70 °FClear.17 mph60%29.89 "Hg10 mi
2:00 AM70 °FClear.15 mph60%29.89 "Hg10 mi
1:00 AM91 °FClear.13 mph30%29.92 "Hg10 mi
12:00 AM72 °FClear.14 mph57%29.95 "Hg10 mi
11:00 PM
Sep 22
73 °FClear.13 mph53%29.95 "Hg10 mi
10:00 PM70 °FClear.7 mph60%29.95 "Hg10 mi
9:00 PM70 °FClear.6 mph60%29.95 "Hg10 mi
8:00 PM73 °FClear.6 mph53%29.95 "Hg10 mi
7:00 PM73 °FClear.6 mph53%29.92 "Hg10 mi
6:00 PM75 °FClear.6 mph50%29.92 "Hg10 mi
5:00 PM81 °FClear.9 mph39%29.92 "Hg10 mi
4:00 PM84 °FSunny.6 mph33%29.92 "Hg10 mi
3:00 PM86 °FSunny.6 mph33%29.92 "Hg10 mi
2:00 PM84 °FSunny.6 mph33%29.95 "Hg10 mi
Weather by CustomWeather, © 2014

See weather overviewHow to use our weather pages